Regional Weather Roundup
Issued by NWS

Home | Current Version | Previous Version | Graphics & Text | Print | Product List | Glossary On
Versions: 1 2 3 4 5 6 7 8 9 10 11 12 13 14 15 16 17 18 19 20 21 22 23 24 25 26 27 28 29 30 31 32 33 34 35 36 37 38 39 40 41 42 43 44 45 46 47 48 49 50
000
ASUS43 KFSD 201402
RWRSD

WEATHER ROUNDUP FOR SOUTH DAKOTA
NATIONAL WEATHER SERVICE SIOUX FALLS SD
800 AM CST THU NOV 20 2014

NOTE: "FAIR" INDICATES FEW OR NO CLOUDS BELOW 12,000 FEET WITH NO
SIGNIFICANT WEATHER AND/OR OBSTRUCTIONS TO VISIBILITY.


SDZ001>005-009-010-012>017-201500-
NORTHWEST AND NORTH CENTRAL SOUTH DAKOTA

CITY           SKY/WX    TMP DP  RH WIND       PRES   REMARKS
BUFFALO          N/A     17  14  88 S9        29.90F WCI   6
FAITH            N/A     16  14  92 S6        30.03F WCI   7
MOBRIDGE       MOCLDY     9   5  84 NW6       30.08S WCI  -1
$$

SDZ012>016-024>037-041>051-057-063-072>074-201500-
SOUTHWEST AND SOUTH CENTRAL SOUTH DAKOTA

CITY           SKY/WX    TMP DP  RH WIND       PRES   REMARKS
RAPID CTY ARPT MOCLDY     9   5  84 CALM      30.00S
PIERRE         CLOUDY    18  11  74 N3        30.11S
CUSTER         MOCLDY    21  10  62 NW6       29.92S WCI  13
ELLSWORTH AFB  CLEAR     13  11  90 S1        29.98F
PHILIP         CLOUDY    17  14  88 CALM      30.09R
PINE RIDGE     MOCLDY     1  -2  87 E3        30.01S
WINNER         CLOUDY    19  12  74 CALM      30.12S
$$

SDZ004>011-016>023-039-040-201500-
NORTHEAST SOUTH DAKOTA

CITY           SKY/WX    TMP DP  RH WIND       PRES   REMARKS
ABERDEEN       PTCLDY     6   0  76 NW7       30.14S WCI  -6
WATERTOWN      PTCLDY     1  -1  91 CALM      30.09R
SISSETON         N/A      4  -1  80 NW5       30.11R WCI  -5
$$

SDZ017-020-022-023-036>040-048>070-201500-
SOUTHEAST SOUTH DAKOTA

CITY           SKY/WX    TMP DP  RH WIND       PRES   REMARKS
SIOUX FALLS    PTCLDY     5   2  87 NW7       30.14R WCI  -7
HURON          MOCLDY     2  -2  83 W6        30.16R WCI  -9
CHAMBERLAIN    CLOUDY    15  11  86 CALM      30.14R
MITCHELL       CLOUDY    14  10  84 W5        30.18R WCI   6
YANKTON        CLOUDY    18  12  79 N3        30.19R
$$

ABBREVIATIONS USED IN REMARKS
   TC - TEMPERATURE IN CELSIUS
  WCI - WIND CHILL INDEX
   HX - HEAT INDEX
  VSB - VISIBILITY



USA.gov is the U.S. government's official web portal to all federal, state and local government web resources and services.